Flag for Israel Weather past 2 weeks in Tel Aviv, Israel

Now
84 °F

Scattered clouds.


Feels Like: 91 °F
Forecast: 77 / 91 °F
Wind: 5 mph from South

Location: Ben Gurion International Airport

Current Time: Aug 23, 2014 at 9:41:00 AM

Latest Report: Aug 23, 2014 at 8:50 AM


Visibility: N/A

Pressure: 29.77 "Hg

Humidity: 70%

Dew point: 73 °F

Location of Tel AvivLocation

Historic Weather in Tel Aviv — Graph

°F

Tel Aviv temperature yesterday

Maximum temperature yesterday: 90 °F (at 3:20 PM)
Minimum temperature yesterday: 75 °F (at 6:20 AM)
Average temperature yesterday: 83 °F

Past Weeks' High & Low Weather Summary

 TemperatureHumidityPressure
High102 °F (Aug 12, 7:20 PM)89% (Aug 14, 5:50 AM)29.95 "Hg (Aug 14, 5:50 AM)
Low73 °F (Aug 11, 4:20 AM)37% (Aug 12, 7:20 PM)29.62 "Hg (Aug 17, 1:20 PM)
Average83 °F67%29.79 "Hg
* Reported Aug 8 8:20 AM — Aug 23 8:20 AM, Tel Aviv, Weather by CustomWeather, © 2014

Note: Actual official high and low records may vary slightly from our data, if they occured in-between our weather recording intervals... More about our weather records

Advertising

Tel Aviv weather history for previous 24 hours

 ConditionsComfort  
Time TempWeatherWind HumidityBarometerVisibility
8:20 AM
Aug 23
82 °FPassing clouds.6 mph74%29.77 "HgN/A
7:50 AM79 °FScattered clouds.7 mph84%29.77 "HgN/A
7:20 AM79 °FScattered clouds.6 mph84%29.77 "HgN/A
6:50 AM77 °FPassing clouds.7 mph83%29.77 "HgN/A
6:20 AM77 °FPassing clouds.6 mph83%29.77 "HgN/A
5:50 AM77 °FPassing clouds.5 mph83%29.77 "HgN/A
5:20 AM77 °FPassing clouds.5 mph83%29.77 "HgN/A
4:50 AM77 °FPassing clouds.6 mph89%29.77 "HgN/A
4:20 AM77 °FPassing clouds.7 mph83%29.77 "HgN/A
3:50 AM77 °FPassing clouds.5 mph83%29.77 "HgN/A
3:20 AM77 °FPassing clouds.5 mph83%29.77 "HgN/A
2:50 AM79 °FPassing clouds.5 mph79%29.77 "HgN/A
2:20 AM79 °FPassing clouds.3 mph84%29.77 "HgN/A
1:50 AM79 °FPassing clouds.1 mph84%29.77 "HgN/A
1:20 AM79 °FPassing clouds.1 mph84%29.77 "HgN/A
12:50 AM81 °FPassing clouds.3 mph79%29.77 "HgN/A
12:20 AM81 °FPassing clouds.2 mph79%29.80 "HgN/A
11:50 PM
Aug 22
81 °FPassing clouds.3 mph79%29.80 "HgN/A
11:20 PM81 °FPassing clouds.3 mph79%29.80 "HgN/A
10:50 PM81 °FPassing clouds.2 mph79%29.80 "HgN/A
10:20 PM81 °FPassing clouds.3 mph79%29.80 "HgN/A
9:50 PM82 °FPassing clouds.3 mph74%29.80 "HgN/A
9:20 PM82 °FPassing clouds.5 mph74%29.80 "HgN/A
8:50 PM82 °FPassing clouds.6 mph74%29.80 "HgN/A
8:20 PM82 °FPassing clouds.6 mph74%29.80 "HgN/A
7:50 PM82 °FScattered clouds.8 mph74%29.80 "HgN/A
7:20 PM84 °FScattered clouds.9 mph70%29.77 "HgN/A
6:50 PM84 °FScattered clouds.9 mph70%29.77 "HgN/A
6:20 PM86 °FScattered clouds.10 mph66%29.77 "HgN/A
5:50 PM86 °FScattered clouds.9 mph66%29.77 "HgN/A
5:20 PM88 °FScattered clouds.12 mph62%29.77 "HgN/A
4:50 PM88 °FScattered clouds.13 mph62%29.77 "HgN/A
4:20 PM88 °FScattered clouds.10 mph62%29.77 "HgN/A
3:50 PM90 °FScattered clouds.13 mph59%29.80 "HgN/A
3:20 PM90 °FScattered clouds.12 mph59%29.80 "HgN/A
2:50 PM88 °FScattered clouds.12 mph62%29.80 "HgN/A
2:20 PM88 °FScattered clouds.13 mph62%29.80 "HgN/A
1:20 PM88 °FScattered clouds.12 mph59%29.80 "HgN/A
12:50 PM88 °FScattered clouds.13 mph59%29.80 "HgN/A
12:20 PM88 °FScattered clouds.12 mph59%29.80 "HgN/A
11:50 AM88 °FScattered clouds.9 mph59%29.80 "HgN/A
11:20 AM88 °FScattered clouds.8 mph59%29.83 "HgN/A
10:50 AM86 °FScattered clouds.7 mph62%29.83 "HgN/A
10:20 AM86 °FScattered clouds.9 mph62%29.83 "HgN/A
9:50 AM86 °FScattered clouds.3 mph62%29.83 "HgN/A
9:20 AM86 °FScattered clouds.5 mph62%29.83 "HgN/A
Weather by CustomWeather, © 2014

See weather overviewHow to use our weather pages